{"data":{"norad_id":64567,"intl_designator":"2025-135AR","name":"ARVAKER-2","alt_names":[],"object_type":"PAYLOAD","status":"ACTIVE","operator":null,"country":"NOR","launch_date":"2025-06-23","launch_site_code":"AFWTR","launch_vehicle":null,"mission":null,"orbit_class":"UNKNOWN","rcs_meters":null,"size_class":null,"mass_kg":null,"dimensions":null,"purposes":[],"wikipedia_slug":null,"has_3d_model":false,"image_url":null,"decayed_at":null,"tle_current":{"epoch":"2026-09-21T21:33:56.526624Z","epoch_age_seconds":60734,"freshness":"FRESH","line1":"1 64567U 25135AR  26264.89857091  .00000855  00000+0  85865-4 0  9994","line2":"2 64567  97.7815  18.0426 0001759  42.4908 317.6448 14.93870743 68314","mean_motion":14.93870743,"eccentricity":0.0001759,"inclination_deg":97.7815,"raan_deg":18.0426,"arg_perigee_deg":42.4908,"mean_anomaly_deg":317.6448,"bstar":8.5865e-5,"rev_number":6831,"period_min":96.393881916998,"perigee_km":584.65509614741,"apogee_km":587.10503735149,"semimajor_km":6964.0170667494,"source":"CELESTRAK","updated_at":"2026-09-22T09:00:29.849908Z"}}}